TA2R-16 Weather Reports


Display with metric or nautical units.
time (UTC)temp
F
wind
direction
speed
MPH
gust
MPH
rain 1hr
in
rain 24hr
in
rain mn
in
humidity
%
barometer
mb
20260504050002 79 0 0.0 0.0 0.00 0.00 0.00 31 1002.2
20260504043002 78 0 0.0 0.0 0.00 0.00 0.00 33 1002.2
20260504040002 78 0 0.0 0.0 0.00 0.00 0.00 33 1002.0
20260504033002 78 0 0.0 0.0 0.00 0.00 0.00 33 1001.8
20260504030002 78 0 0.0 0.0 0.00 0.00 0.00 33 1001.6
20260504023002 78 0 0.0 0.0 0.00 0.00 0.00 33 1001.3
20260504020001 78 0 0.0 0.0 0.00 0.00 0.00 33 1001.3
20260504013002 79 0 0.0 0.0 0.00 0.00 0.00 31 1001.3
20260504010002 79 0 0.0 0.0 0.00 0.00 0.00 31 1001.1
20260504003003 79 0 0.0 0.0 0.00 0.00 0.00 30 1001.1
20260504000002 80 0 0.0 0.0 0.00 0.00 0.00 28 1001.0
20260503230003 83 0 0.0 0.0 0.00 0.00 0.00 26 1001.0
20260503223005 86 0 0.0 0.0 0.00 0.00 0.00 23 1000.9
20260503220002 87 0 0.0 0.0 0.00 0.00 0.00 25 1001.0
20260503213002 87 0 0.0 0.0 0.00 0.00 0.00 24 1001.2
20260503210001 87 0 0.0 0.0 0.00 0.00 0.00 24 1001.2
20260503200002 87 0 0.0 0.0 0.00 0.00 0.00 25 1001.5
20260503193002 87 0 0.0 0.0 0.00 0.00 0.00 26 1001.5
20260503190001 87 0 0.0 0.0 0.00 0.00 0.00 26 1001.5
20260503183003 87 0 0.0 0.0 0.00 0.00 0.00 26 1001.7
20260503180008 85 0 0.0 0.0 0.00 0.00 0.00 27 1001.6
20260503173002 85 0 0.0 0.0 0.00 0.00 0.00 27 1001.6